Location: Gdynia
(54.5193°N, 18.5395°E)
Time: 05:49:34
(UTC+01:00)

ISS - Visible Passes

Search period start: 23 March 2019 00:00
Search period end: 02 April 2019 01:00
Orbit: 406 x 411 km, 51.6° (Epoch: 23 March)

Date Brightness Start Highest point End Pass type
(mag) Time Alt. Az. Time Alt. Az. Time Alt. Az.
23 Mar -1.6 18:50:09 10° SSE 18:51:11 11° SE 18:52:13 10° ESE visible
23 Mar -1.7 20:24:01 10° SW 20:25:12 19° SSW 20:25:12 19° SSW visible
24 Mar -2.6 19:33:19 10° SSW 19:36:06 25° SSE 19:36:39 24° SE visible
24 Mar -0.9 21:09:04 10° WSW 21:09:24 12° WSW 21:09:24 12° WSW visible
25 Mar -2.1 18:42:48 10° SSW 18:45:13 19° SSE 18:47:38 10° ESE visible
25 Mar -3.0 20:18:06 10° WSW 20:20:42 39° SSW 20:20:42 39° SSW visible
26 Mar -3.1 19:27:12 10° SW 19:30:17 37° SSE 19:31:52 22° ESE visible
26 Mar -1.6 21:03:20 10° W 21:04:36 21° WSW 21:04:36 21° WSW visible
27 Mar -3.6 20:12:18 10° WSW 20:15:31 51° S 20:15:40 50° SSE visible
28 Mar -3.4 19:21:17 10° WSW 19:24:28 47° S 19:26:40 18° ESE visible
28 Mar -2.1 20:57:37 10° W 20:59:24 27° WSW 20:59:24 27° WSW visible
29 Mar -3.5 20:06:31 10° W 20:09:43 49° S 20:10:20 42° SSE visible
30 Mar -3.4 19:15:25 10° WSW 19:18:39 51° S 19:21:14 15° ESE visible
30 Mar -2.2 20:51:53 10° W 20:53:57 27° SW 20:53:57 27° SW visible
31 Mar -3.1 21:00:43 10° W 21:03:51 40° SSW 21:04:50 31° SSE visible
01 Apr -3.3 20:09:35 10° W 20:12:46 47° S 20:15:41 12° ESE visible
01 Apr -1.9 21:46:16 10° W 21:48:25 21° SW 21:48:25 21° SW visible
